Torna al catalogo

FENGYUN 1C DEB

AttivoSSO
NORAD 31338·DEBRIS·🇨🇳 China

Lanciato May 10, 1999 da Taiyuan Satellite Launch Center

Loading…

Prossimi Passaggi (prossime 24 ore)

TLE

AggiornatoSource: Space-Track

Epoca: Sep 13, 2026, 08:43 UTC

1 31338U 99025BQS 26256.36322022  .00003012  00000-0  13117-2 0  9995
2 31338  98.7025  98.1469 0073013  35.8937 324.7115 14.23317146675617

Traccia FENGYUN 1C DEB in tempo reale con AllMySat

Download on the App Store